Regional Weather Roundup
Issued by NWS Kansas City/Pleasant Hill, MO

Home | Current Version | Previous Version | Graphics & Text | Print | Product List | Glossary Off
Versions: 1 2 3 4 5 6 7 8 9 10 11 12 13 14 15 16 17 18 19 20 21 22 23 24 25 26 27 28

000
ASUS43 KEAX 261810
RWREAX

WEATHER ROUNDUP FOR EASTERN KANSAS AND NORTHWEST MISSOURI
NATIONAL WEATHER SERVICE KANSAS CITY/PLEASANT HILL MO
100 PM CDT WED APR 26 2017

KSZ040-057-103>105-MOZ028-029-037-043-261900-
...KANSAS CITY METROPOLITAN AREA...

CITY           SKY/WX    TMP DP  RH WIND       PRES   REMARKS
K.C. INTL      CLOUDY    47  40  76 N12       29.62F
6HR MIN TEMP:  41; 6HR MAX TEMP:  47; 6HR PCP: TRACE;

K.C. DOWNTOWN  CLOUDY    48  39  71 NW12      29.62F
6HR MIN TEMP:  43; 6HR MAX TEMP:  48;

LEES SUMMIT    CLOUDY    46  41  82 NW13      29.61F
6HR MIN TEMP:  42; 6HR MAX TEMP:  45; 6HR PCP: TRACE;

OLATHE - IXD   CLOUDY    46  39  76 NW13      29.64F
6HR MIN TEMP:  41; 6HR MAX TEMP:  46;

OLATHE - OJC   CLOUDY    45  40  82 NW15      29.63F
6HR MIN TEMP:  41; 6HR MAX TEMP:  46;

LAWRENCE       CLOUDY    47  39  74 NW14      29.66S

$$

MOZ001>008-011>017-020>025-030>033-038>040-044>046-053-054-261900-
...NORTHERN AND CENTRAL MISSOURI...

CITY           SKY/WX    TMP DP  RH WIND       PRES   REMARKS
ST. JOSEPH     CLOUDY    47  39  74 N14       29.64F
6HR MIN TEMP:  41; 6HR MAX TEMP:  48; 6HR PCP: TRACE;

WHITEMAN AFB   NOT AVBL
CLINTON        LGT RAIN  45  45 100 N12       29.60F
SEDALIA        LGT RAIN  47  47 100 N15       29.60F
6HR MIN TEMP:  47; 6HR MAX TEMP:  52; 6HR PCP: TRACE;

WARSAW         NOT AVBL
CHILLICOTHE      N/A     47  41  80 VRB7      29.63F
6HR MIN TEMP:  44; 6HR MAX TEMP:  47; 6HR PCP:  0.08;

KIRKSVILLE     CLOUDY    46  43  89 NW6       29.61R
6HR MIN TEMP:  46; 6HR MAX TEMP:  50; 6HR PCP: TRACE;


$$

MOZ041-047>049-056>058-063>065-088>090-097-261900-
...EASTERN AND SOUTHERN MISSOURI...

CITY           SKY/WX    TMP DP  RH WIND       PRES   REMARKS
ST. LOUIS INTL LGT RAIN  66  59  78 S12       29.57F
6HR MIN TEMP:  65; 6HR MAX TEMP:  70; 6HR PCP:  0.01;

SPIRIT OF STL  TSTM      63  60  90 S12       29.55F
COLUMBIA       CLOUDY    50  50 100 N15       29.56F
JEFFERSON CITY LGT RAIN  53  49  86 NW8       29.56F
ROLLA          RAIN      58  58 100 SE13      29.54S FOG
OSAGE BEACH    TSTM      50  49  96 NE13G22   29.49F
SPRINGFIELD    CLOUDY    50  49  96 NW13      29.56F FOG
BRANSON        LGT RAIN  55  55 100 E9G18     29.51F FOG
JOPLIN         LGT RAIN  47  45  93 N13       29.61F
WEST PLAINS    RAIN      57  55  93 E7        29.58F FOG

$$

IAZ060-094-KSZ022-034>040-054-083-096-NEZ052-066-093-261900-
...KANSAS...SOUTHEAST NEBRASKA AND IOWA...

CITY           SKY/WX    TMP DP  RH WIND       PRES   REMARKS
TOPEKA         CLOUDY    49  38  65 NW14      29.66S
6HR MIN TEMP:  42; 6HR MAX TEMP:  50;

MANHATTAN      CLOUDY    48  35  60 NW10      29.69F
EMPORIA        CLOUDY    48  38  68 NW16G23   29.65F
CHANUTE        LGT RAIN  45  40  82 N14       29.64F
WICHITA        CLOUDY    48  36  63 N15       29.69F
OMAHA          CLOUDY    45  34  65 NW23G31   29.67F
LINCOLN        CLOUDY    43  32  65 NW21      29.71F WCI  34
FALLS CITY     MOSUNNY   49  36  61 NW21G28   29.64F
LAMONI         CLOUDY    47  40  76 NW16      29.61S
DES MOINES     CLOUDY    50  39  66 NW21      29.58S

$$





USA.gov is the U.S. government's official web portal to all federal, state and local government web resources and services.